Regional Weather Roundup
Issued by NWS

Home | Current Version | Previous Version | Graphics & Text | Print | Product List | Glossary On
Versions: 1 2 3 4 5 6 7 8 9 10 11 12 13 14 15 16 17 18 19 20 21 22 23 24 25 26 27 28 29 30 31 32 33 34 35 36 37 38 39 40 41 42 43 44 45 46 47 48 49 50
000
ASUS43 KDMX 020707
RWRIA

WEATHER ROUNDUP FOR IOWA
NATIONAL WEATHER SERVICE DES MOINES IA
200 AM CDT TUE SEP 02 2014

NOTE: "FAIR" INDICATES FEW OR NO CLOUDS BELOW 12,000 FEET WITH NO
SIGNIFICANT WEATHER AND/OR OBSTRUCTIONS TO VISIBILITY.

* - THESE STATIONS ARE NOT NWS STATIONS...THUS NOT UNDER NWS
QUALITY CONTROL.  THEY ALSO DO NOT REPORT WEATHER SUCH
AS PRECIPITATION OR FOG.

IAZ001>003-012>014-020>022-031>034-043>046-020800-
   NORTHWEST IOWA

CITY           SKY/WX    TMP DP  RH WIND       PRES   REMARKS
CARROLL *      LGT RAIN  61  57  88 W12G21    29.94F
CHEROKEE *     CLOUDY    59  59 100 CALM      29.92F
DENISON *      PTCLDY    59  59 100 CALM      29.89F
LE MARS *        N/A     59  59 100 W10G17    29.92R
ORANGE CITY *  CLOUDY    61  57  88 CALM      29.89F
SHELDON *      CLOUDY    61  59  94 VRB5      29.89S
SIOUX CITY     PTCLDY    59  57  93 W3          N/A
SPENCER        CLOUDY    63  59  87 W12       29.90R
STORM LAKE *   PTCLDY    59  59 100 NW8       29.92F
$$

IAZ055>058-069>071-079>083-090>094-020800-
   SOUTHWEST IOWA

CITY           SKY/WX    TMP DP  RH WIND       PRES   REMARKS
ATLANTIC *     CLOUDY    63  59  88 N5        29.94R
AUDUBON *      DRIZZLE   63  59  88 N6        29.93F
CLARINDA *     CLEAR     63  63 100 CALM      29.96S
COUNCIL BLFS * PTCLDY    63  61  94 CALM      29.93F
CRESTON *      CLEAR     63  63 100 NW6       29.95S
HARLAN  *      MOCLDY    61  59  94 CALM      29.98F
LAMONI         MOCLDY    64  63  96 W6        29.95R
RED OAK *      MOCLDY    63  63 100 CALM      29.96R
SHENANDOAH *     N/A     63  63 100 CALM      29.96S
$$

IAZ047>049-059>061-072>074-084-020800-
   CENTRAL IOWA

CITY           SKY/WX    TMP DP  RH WIND       PRES   REMARKS
AMES           CLEAR     61  60  97 W3        29.90S
ANKENY *       CLEAR     63  63 100 CALM      29.91R
CHARITON *     PTCLDY    64  64 100 W7        29.93R
DES MOINES     PTCLDY    66  62  87 NW3       29.91R
GRINNELL*      CLEAR     61  59  94 SW3       29.91R
KNOXVILLE *    PTCLDY    64  61  88 NW6       29.90R
MARSHALLTOWN   CLEAR     61  60  97 SW5       29.90R
PELLA *        PTCLDY    63  63 100 W3        29.92R
PERRY *        MOCLDY    63  61  94 W18G29    29.94R
$$

IAZ004>006-015-016-023>025-035-036-020800-
   NORTH CENTRAL IOWA

CITY           SKY/WX    TMP DP  RH WIND       PRES   REMARKS
ALGONA *       CLEAR     61  59  94 S7        29.90R
CLARION *      MOCLDY    59  59 100 S6        29.90S
ESTHERVILLE    CLOUDY    58  57  97 SW6       29.88R
FORT DODGE *   MOCLDY    63  61  94 CALM      29.90F
MASON CITY     CLEAR     57  56  96 SW6       29.90S
FOREST CITY *    N/A     55  55 100 CALM      29.89S
IOWA FALLS *     N/A     59  57  94 CALM      29.90F
$$

IAZ007>011-017>019-026>030-037>042-050>054-066-020800-
   NORTHEAST IOWA

CITY           SKY/WX    TMP DP  RH WIND       PRES   REMARKS
CEDAR RAPIDS   CLEAR     61  61 100 SW3       29.89R FOG
CHARLES CITY * CLEAR     57  57 100 CALM      29.90S
CLINTON *        N/A     63  61  94 W5        29.89S VSB 1/4
DECORAH *      CLEAR     59  57  94 NW5       29.88S
DUBUQUE        CLEAR     60  59  96 SW3       29.88S
MONTICELLO *   CLEAR     61  61 100 CALM      29.88S FOG
OELWEIN *      CLEAR     59  59 100 CALM      29.90S
WATERLOO       CLEAR     60  59  96 CALM      29.88S
$$

IAZ064-065-067-068-078-020800-
   EAST CENTRAL IOWA

CITY           SKY/WX    TMP DP  RH WIND       PRES   REMARKS
DAVENPORT      PTCLDY    63  62  97 CALM      29.88R
IOWA CITY      PTCLDY    64  63  96 W3        29.89S
MT. PLEASANT * MOCLDY    66  64  94 CALM      29.90R
MUSCATINE *    CLEAR     68  66  94 CALM      29.88R
QUAD CITIES    MOCLDY    68  65  90 W5        29.87R
$$

IAZ062-063-075>077-085>089-095>099-020800-
   SOUTHEAST IOWA

CITY           SKY/WX    TMP DP  RH WIND       PRES   REMARKS
BURLINGTON     MOCLDY    68  67  96 NW5       29.89R
FAIRFIELD *    CLEAR     64  63  94 CALM      29.90S
FORT MADISON * MOCLDY    70  70 100 CALM      29.91R
KEOKUK *       MOCLDY    68  68 100 SW5       29.90R
OSKALOOSA *      N/A     63  63 100 W5        29.91R
CENTERVILLE *  CLEAR     64  64 100 W3        29.93S
OTTUMWA        PTCLDY    64  62  93 W3        29.91R
WASHINGTON *   CLEAR     64  64 100 SW5       29.89S
$$

ABBREVIATIONS USED IN REMARKS
   TC - TEMPERATURES IN CELSIUS
  WCI - WIND CHILL INDEX
   HX - HEAT INDEX
  VSB - VISIBILITY
$$




USA.gov is the U.S. government's official web portal to all federal, state and local government web resources and services.